Theta_e
345 345 345 345 346 346 348 350 352 352 354 355 357 355 357 354 356 352 358 354 354 356 355 354 357 355 353 353 357 359 358 356 357 356 350 345 351 350 347 331 330 333 333
346 347 347 347 348 348 349 350 351 355 353 355 355 355 354 357 355 353 358 354 352 356 355 356 356 359 357 359 355 356 360 357 358 357 354 356 350 348 346 337 331 331 332
347 349 350 348 348 351 351 352 353 354 354 354 354 355 355 358 358 352 356 351 354 356 356 358 359 361 360 361 358 360 359 356 358 356 356 357 355 350 346 337 337 333 336
348 350 350 350 349 349 352 353 352 356 354 353 354 353 355 356 354 357 353 354 357 356 356 358 360 363 363 358 359 362 359 359 359 356 355 355 354 354 353 335 336 336 336
347 347 349 349 348 348 350 352 356 355 355 353 354 353 353 356 358 354 359 359 356 357 355 355 357 362 364 363 360 360 358 357 359 359 358 354 352 354 350 348 338 335 335
351 349 348 348 348 347 348 351 355 356 355 359 353 352 356 353 359 360 359 353 351 350 357 357 358 361 362 360 360 358 354 359 358 357 356 357 355 353 351 342 338 336 336
351 352 352 350 348 347 347 348 356 358 359 358 360 350 353 361 359 362 361 352 353 352 356 360 361 361 358 357 356 356 355 354 355 354 355 355 353 350 352 343 342 339 339
347 352 351 351 349 347 347 348 358 360 360 359 361 359 351 359 362 360 359 357 353 355 355 350 350 350 352 354 354 354 353 354 354 353 355 353 352 351 352 346 342 343 341
346 351 351 351 350 347 347 348 358 361 360 361 360 359 359 357 357 357 354 352 352 352 352 352 352 354 353 355 354 355 354 355 355 354 355 355 354 354 353 350 344 344 342
347 349 351 351 350 348 346 346 354 358 361 361 360 360 360 360 352 359 359 357 358 357 353 351 353 355 357 357 355 356 360 358 359 356 356 356 356 355 356 348 345 346 338
348 349 349 349 349 347 347 346 346 355 360 360 360 360 360 360 360 359 358 358 358 354 353 354 359 361 359 360 361 361 361 361 360 358 355 356 357 355 355 346 346 345 338
342 343 346 349 349 348 348 348 348 350 356 358 357 358 359 359 361 361 360 358 358 358 358 362 363 364 361 362 362 362 361 361 357 359 357 357 357 356 354 348 344 343 338
347 350 354 359 359 350 350 350 350 350 355 356 356 357 358 359 360 361 360 359 359 359 362 363 362 363 363 364 363 363 359 357 359 357 358 356 353 353 355 348 344 340 336
355 357 361 363 363 364 356 353 352 351 353 356 357 358 358 359 359 359 361 360 360 362 363 363 363 363 363 364 362 358 356 359 358 354 353 353 349 350 352 348 342 336 336
354 355 357 357 361 364 365 356 357 354 353 355 358 357 360 360 361 362 364 364 362 363 364 365 363 362 365 357 352 348 357 356 354 354 353 349 347 351 350 345 339 337 335
348 353 354 357 358 363 364 361 359 359 358 357 360 360 360 362 362 362 364 364 365 366 366 364 365 364 357 351 348 350 357 355 354 353 350 348 347 348 345 344 339 337 334
343 347 351 354 356 362 361 363 361 360 358 359 361 360 363 363 363 363 365 365 366 367 366 365 365 361 356 348 349 352 355 353 350 349 348 347 344 343 342 341 336 335 335
340 341 342 343 349 352 353 363 363 362 363 361 365 362 364 366 365 365 365 366 367 367 367 365 361 357 353 345 347 351 354 348 348 347 346 345 345 342 339 336 335 334 333
338 338 336 337 346 350 352 352 361 364 362 366 363 367 365 368 367 368 368 368 368 369 365 361 357 353 344 344 347 349 352 349 346 345 342 345 344 342 339 338 335 331 331
334 334 334 335 340 342 349 354 355 362 363 363 365 364 366 367 369 369 369 369 370 367 361 356 353 350 341 341 343 347 349 350 346 342 341 342 340 339 339 339 335 334 330
333 333 333 335 338 341 343 352 353 356 361 363 360 364 365 367 368 369 370 371 366 361 356 351 349 345 338 339 342 343 344 343 346 344 342 338 335 335 338 339 339 336 330
331 332 333 335 336 337 340 346 349 354 356 360 362 359 363 366 367 367 370 366 360 356 351 348 346 344 341 334 335 337 336 336 343 342 341 339 335 331 334 334 337 335 331
331 330 332 333 334 336 338 341 343 348 353 356 364 357 358 360 362 362 365 361 353 351 348 346 345 341 334 328 327 331 334 340 341 340 338 334 325 325 329 332 324 329 332
330 329 331 334 335 335 336 337 339 342 350 353 359 356 353 354 352 352 357 353 351 349 348 345 344 343 338 332 332 333 335 336 336 336 331 325 332 336 332 325 326 331 334
328 329 330 333 335 334 333 336 337 340 344 351 354 356 349 348 339 335 335 332 349 349 347 344 341 336 333 330 329 334 337 336 336 337 333 328 332 335 337 337 332 333 333
330 330 330 332 333 333 333 334 336 338 342 346 349 352 348 345 342 334 331 329 314 333 339 337 335 330 331 325 326 327 330 332 335 338 336 334 334 334 335 335 337 339 336
Wind_Speed
16 21 18 20 23 20 21 17 14 13 10 10 12 13 16 13 14 7 9 5 2 7 5 3 9 4 4 5 4 7 7 12 7 7 8 10 7 8 11 2 8 19 20
17 18 22 21 22 25 23 22 18 17 17 15 14 14 13 2 6 4 7 4 3 4 2 4 5 4 5 6 6 16 10 16 5 3 4 2 1 6 10 8 13 18 19
17 16 19 21 22 26 27 25 22 21 19 18 14 8 10 9 9 13 13 9 9 5 3 4 8 9 10 9 5 11 8 7 15 7 3 3 3 3 8 10 13 20 18
18 17 18 23 23 23 27 27 28 22 23 19 16 15 13 14 12 4 13 16 13 8 9 9 9 8 10 13 15 11 13 11 14 18 16 13 10 3 3 2 11 13 12
19 19 19 25 25 26 27 28 29 27 23 24 21 15 16 16 13 12 18 13 9 13 14 11 8 7 8 12 15 16 15 15 16 17 18 9 14 13 7 5 4 9 11
20 17 25 28 25 25 26 29 32 30 28 24 26 23 17 22 16 10 7 9 14 18 19 11 7 5 8 12 12 14 18 16 18 17 18 17 10 10 9 2 4 4 5
18 17 17 19 24 24 25 24 33 31 29 26 25 27 25 17 18 9 8 7 15 7 19 11 6 5 9 12 15 15 17 18 15 15 16 18 21 19 10 6 3 2 1
13 18 18 19 23 24 24 25 32 30 29 28 26 25 28 20 15 12 12 10 14 12 6 6 6 9 13 13 13 13 16 17 16 18 15 21 21 18 11 8 7 2 1
12 14 17 21 21 22 24 25 28 29 30 29 27 26 24 24 21 18 17 17 16 16 13 7 6 8 9 11 11 14 16 14 15 20 19 20 21 17 13 8 10 7 2
6 13 11 18 21 22 22 22 24 30 29 27 28 27 26 25 27 18 17 16 14 10 13 11 9 8 9 10 10 12 13 17 16 18 18 19 19 16 9 6 10 9 6
7 11 13 17 19 19 20 22 23 26 26 26 26 26 26 25 24 23 20 17 16 18 16 12 11 9 10 9 10 11 15 13 17 16 15 15 14 14 2 7 9 11 10
17 15 3 21 26 27 28 28 28 28 32 29 27 28 26 26 24 24 22 21 22 19 16 13 11 10 9 9 9 11 13 12 16 15 15 16 14 12 3 9 9 13 10
12 13 16 16 21 22 31 32 34 32 33 33 32 27 28 28 27 26 25 23 21 19 17 15 14 11 9 8 7 8 11 11 12 14 15 15 15 14 4 12 12 14 14
9 13 12 13 21 25 2 23 30 30 31 33 33 29 30 30 29 27 26 25 22 20 18 16 13 10 8 6 7 7 6 7 11 12 12 14 15 9 10 12 15 19 16
12 12 12 13 18 22 19 6 5 19 29 35 32 33 29 28 27 27 25 25 23 21 18 15 14 11 9 5 4 4 3 7 7 9 8 11 13 7 6 12 22 22 20
12 12 11 13 14 18 19 14 7 7 5 26 31 30 30 28 29 28 28 25 22 20 17 16 14 11 8 3 5 2 3 4 9 9 10 9 10 6 6 9 21 18 21
11 11 12 13 16 15 17 16 12 9 12 12 22 28 30 31 31 30 27 26 23 20 18 17 15 11 7 5 4 5 5 4 5 9 7 7 8 9 13 18 16 14 5
9 9 11 17 17 21 27 25 15 11 13 16 15 25 26 28 29 29 29 26 24 21 19 18 15 13 9 9 8 9 6 4 3 5 5 6 7 12 12 13 11 6 5
8 10 13 16 17 20 22 27 25 17 14 15 20 19 24 24 26 27 27 26 24 22 22 21 17 13 10 10 11 9 12 7 5 2 5 6 6 14 11 10 10 7 6
11 11 16 17 16 21 25 19 21 22 18 17 18 22 22 24 26 28 30 29 27 27 24 22 21 15 12 12 11 11 6 11 10 7 4 7 8 11 8 10 10 8 6
14 12 13 14 15 18 20 18 18 20 23 26 29 20 25 28 32 31 28 28 30 27 25 26 21 15 14 13 13 12 12 13 14 9 8 5 7 9 9 7 11 10 10
17 17 15 13 12 15 19 18 18 22 24 26 27 25 24 29 28 31 29 28 28 25 24 23 17 12 12 10 11 11 9 12 11 9 8 6 8 11 8 7 10 9 11
14 17 19 16 16 13 13 18 22 23 23 26 24 24 23 25 27 28 25 22 22 23 19 17 16 15 10 7 7 8 10 14 13 10 8 10 11 11 8 5 11 17 14
15 17 19 19 16 15 17 17 21 22 21 23 23 19 12 9 5 16 23 16 13 17 18 18 18 22 20 11 9 10 14 12 12 12 13 14 11 9 8 9 13 10 7
20 20 19 21 18 16 20 20 17 19 20 22 21 15 11 4 6 17 19 10 17 18 21 22 19 23 21 15 13 10 15 13 13 12 11 9 7 7 7 6 5 5 4
18 18 20 23 22 19 21 20 17 17 18 21 19 13 5 13 16 21 13 13 15 21 20 21 27 24 22 17 17 16 14 15 17 13 11 8 7 4 4 2 3 4 5
Wind_Direction
185 177 188 176 159 166 172 189 183 193 180 203 209 229 222 236 231 141 228 157 147 208 253 275 221 300 231 303 340 315 330 325 252 330 333 352 121 119 145 291 307 310 337
184 183 181 181 174 168 175 182 192 186 194 211 225 227 254 316 264 291 203 171 150 229 283 313 343 8 337 314 328 293 294 328 300 338 331 318 197 212 233 276 322 332 334
194 181 177 187 184 174 176 183 192 193 194 209 225 242 258 268 235 217 219 186 182 218 241 282 290 303 301 300 309 266 357 297 327 338 226 279 263 342 239 255 275 304 330
189 180 178 183 192 186 180 186 191 198 200 213 232 215 229 236 239 300 215 185 197 200 233 240 248 268 281 303 320 349 335 331 316 311 284 251 261 262 308 248 292 319 317
185 187 183 183 194 195 187 185 187 195 206 208 217 230 224 251 250 246 168 181 189 234 227 244 244 260 272 293 310 315 321 314 301 301 311 287 261 266 223 291 307 311 323
178 184 181 181 189 195 193 186 185 193 206 207 211 217 225 237 256 290 214 208 239 234 233 235 234 269 286 299 313 313 313 307 297 301 301 295 299 286 271 225 258 265 338
181 174 174 174 181 194 193 196 181 187 198 207 207 218 221 233 244 264 274 255 288 314 222 210 243 272 299 314 316 310 303 301 309 311 299 301 301 309 295 190 180 249 330
183 173 177 172 178 189 192 199 177 185 192 201 210 214 221 229 238 241 244 254 260 302 351 324 312 303 302 306 308 310 305 310 311 313 311 304 307 307 289 195 160 159 231
171 177 175 176 182 185 190 194 176 185 190 199 208 212 214 217 224 232 234 238 263 282 292 314 307 300 301 305 310 311 315 322 316 313 316 318 318 323 317 217 166 151 173
178 168 181 176 182 185 190 194 182 186 192 199 205 209 211 215 219 227 232 232 241 241 267 288 290 293 294 297 305 306 315 319 324 324 325 327 327 336 319 153 161 176 149
164 182 179 183 181 188 194 192 197 186 192 201 209 209 211 213 218 227 234 232 246 252 260 262 272 277 283 293 301 310 319 328 326 332 338 332 339 350 31 135 154 160 159
1 357 261 194 188 190 191 193 195 194 190 199 212 209 212 211 215 219 225 231 235 241 242 246 252 262 273 283 305 320 328 343 332 344 343 347 354 9 121 142 151 162 171
7 354 7 0 354 201 189 191 191 196 189 190 201 211 210 209 213 217 219 223 226 230 235 240 237 243 262 284 309 319 329 343 342 356 356 11 8 2 111 153 155 158 146
24 21 3 354 347 343 318 191 187 191 187 189 193 204 207 209 212 216 218 219 221 226 231 235 240 237 258 271 273 311 343 338 6 6 9 4 7 13 133 148 149 146 151
40 16 4 349 344 346 343 354 330 196 190 188 192 199 203 208 210 211 214 216 219 226 230 227 230 225 235 251 300 318 13 14 19 17 34 16 15 52 125 150 155 159 157
37 24 7 355 341 339 333 318 300 291 268 192 191 196 199 206 210 211 210 212 217 222 219 218 217 209 202 252 291 141 73 36 36 36 29 30 36 78 109 138 155 163 158
29 19 1 349 345 333 324 311 284 260 261 271 205 199 196 202 209 207 206 207 210 210 209 208 201 174 191 217 165 132 111 103 32 37 33 52 52 94 115 136 152 152 143
19 9 357 339 349 357 355 351 323 266 237 246 256 210 204 202 207 206 204 200 196 196 197 187 170 187 208 189 165 148 135 125 45 50 46 69 93 121 131 134 153 130 90
8 355 346 332 353 5 349 353 350 318 302 268 235 235 213 210 207 204 199 193 187 186 176 166 169 185 187 181 169 168 177 144 113 66 70 115 121 136 143 150 147 128 97
354 360 340 336 6 347 340 350 338 333 320 289 254 234 228 218 211 203 198 192 185 166 159 159 176 187 182 175 175 181 193 153 137 112 105 135 140 150 152 152 159 143 142
329 335 339 340 357 343 339 336 331 329 330 324 319 255 224 220 215 206 198 181 167 159 157 158 169 179 182 176 180 168 160 142 144 135 141 135 144 155 161 159 165 168 158
322 324 325 332 336 340 336 333 327 327 324 322 315 299 240 218 216 209 189 169 161 156 151 148 156 170 178 175 180 182 170 146 133 134 141 149 150 148 154 140 147 161 149
318 318 313 316 318 320 319 322 319 323 325 320 306 292 271 249 228 200 170 157 153 149 147 156 170 163 170 150 145 136 145 140 129 148 153 134 132 132 139 142 148 147 164
302 302 303 302 298 306 313 303 310 316 320 316 307 292 289 257 98 28 136 130 155 156 162 179 185 163 163 166 159 153 126 133 120 121 133 140 135 129 150 142 167 172 218
292 291 288 287 286 292 300 294 301 313 315 311 302 284 261 229 223 123 303 337 190 180 190 187 190 158 147 167 181 169 159 150 143 128 121 139 152 164 149 160 192 256 213
291 288 288 286 284 289 288 294 299 304 308 303 296 275 199 189 155 154 141 174 318 157 179 193 176 161 178 177 163 165 157 149 137 134 124 117 131 137 108 122 88 96 125